When you browse on this site, cookies collect data to enhance your experience and personalize the content and advertising you see.
Visit our Privacy Policy to learn more. By continuing to use the site, you agree to this use of cookies and data.
  • In Austria
  • List of Countries
  • For 7 days
  • Water Temperature
  • Satellite Maps
  • Weather Map
  • News
  • Weather Widgets
  • user-avatar
    Login

    Hourly Weather Ondjiwa

    Today, 16 February, Saturday

    Time Temperature Precipitation Wind Pressure Humidity
    00:00 +24°C° 0 mm 2 mps 668 mmHg 27%
    01:00 +23°C° 0 mm 2 mps 668 mmHg 29%
    02:00 +21°C° 0 mm 2 mps 667 mmHg 30%
    03:00 +21°C° 0 mm 2 mps 667 mmHg 30%
    04:00 +20°C° 0 mm 2 mps 667 mmHg 30%
    05:00 +21°C° 0 mm 2 mps 667 mmHg 33%
    06:00 +21°C° 0 mm 2 mps 668 mmHg 36%
    07:00 +23°C° 0 mm 2 mps 669 mmHg 36%
    08:00 +25°C° 0 mm 2 mps 669 mmHg 30%
    09:00 +28°C° 0 mm 2 mps 670 mmHg 24%
    10:00 +30°C° 0 mm 2 mps 670 mmHg 18%
    11:00 +32°C° 0 mm 2 mps 670 mmHg 17%
    12:00 +34°C° 0 mm 2 mps 669 mmHg 17%
    13:00 +36°C° 0 mm 3 mps 669 mmHg 16%
    14:00 +36°C° 0 mm 2 mps 668 mmHg 16%
    15:00 +36°C° 0 mm 2 mps 668 mmHg 17%
    16:00 +36°C° 0 mm 2 mps 667 mmHg 18%
    17:00 +34°C° 0 mm 2 mps 667 mmHg 21%
    18:00 +31°C° 0 mm 2 mps 667 mmHg 24%
    19:00 +29°C° 0 mm 1 mps 667 mmHg 27%
    20:00 +28°C° 0 mm 2 mps 667 mmHg 28%
    21:00 +27°C° 0 mm 2 mps 667 mmHg 29%
    22:00 +26°C° 0 mm 2 mps 668 mmHg 29%
    23:00 +26°C° 0 mm 2 mps 668 mmHg 30%

    Tomorrow, 17 February, Sunday

    Time Temperature Precipitation Wind Pressure Humidity
    00:00 +26°C° 0 mm 2 mps 668 mmHg 30%
    01:00 +25°C° 0 mm 2 mps 668 mmHg 31%
    02:00 +24°C° 0 mm 3 mps 667 mmHg 31%
    03:00 +22°C° 0 mm 3 mps 667 mmHg 30%
    04:00 +21°C° 0 mm 3 mps 667 mmHg 30%
    05:00 +21°C° 0 mm 3 mps 667 mmHg 33%
    06:00 +21°C° 0 mm 3 mps 667 mmHg 36%
    07:00 +21°C° 0 mm 2 mps 668 mmHg 39%
    08:00 +26°C° 0 mm 3 mps 668 mmHg 32%
    09:00 +29°C° 0 mm 3 mps 669 mmHg 24%
    10:00 +33°C° 0 mm 3 mps 670 mmHg 17%
    11:00 +35°C° 0 mm 3 mps 669 mmHg 15%
    12:00 +36°C° 0 mm 3 mps 669 mmHg 13%
    13:00 +37°C° 0 mm 3 mps 669 mmHg 12%
    14:00 +37°C° 0 mm 3 mps 668 mmHg 12%
    15:00 +38°C° 0 mm 2 mps 667 mmHg 12%
    16:00 +38°C° 0 mm 2 mps 667 mmHg 12%
    17:00 +35°C° 0 mm 2 mps 666 mmHg 14%
    18:00 +32°C° 0 mm 2 mps 666 mmHg 17%
    19:00 +29°C° 0 mm 1 mps 666 mmHg 20%
    20:00 +29°C° 0 mm 1 mps 666 mmHg 20%
    21:00 +28°C° 0 mm 1 mps 667 mmHg 20%
    22:00 +28°C° 0 mm 1 mps 667 mmHg 20%
    23:00 +27°C° 0 mm 2 mps 667 mmHg 21%

    Day after tomorrow, 18 February, Monday

    Time Temperature Precipitation Wind Pressure Humidity
    00:00 +26°C° 0 mm 2 mps 667 mmHg 23%
    01:00 +26°C° 0 mm 3 mps 667 mmHg 24%
    02:00 +26°C° 0 mm 3 mps 667 mmHg 28%
    03:00 +25°C° 0 mm 2 mps 667 mmHg 31%
    04:00 +25°C° 0 mm 2 mps 666 mmHg 35%
    05:00 +25°C° 0 mm 2 mps 667 mmHg 37%
    06:00 +25°C° 0 mm 2 mps 667 mmHg 40%
    07:00 +25°C° 0 mm 2 mps 667 mmHg 42%
    08:00 +27°C° 0 mm 2 mps 668 mmHg 41%
    09:00 +29°C° 0 mm 2 mps 668 mmHg 39%
    10:00 +30°C° 0 mm 2 mps 669 mmHg 38%
    11:00 +33°C° 0 mm 3 mps 668 mmHg 34%
    12:00 +34°C° 0 mm 3 mps 668 mmHg 31%
    13:00 +36°C° 0 mm 3 mps 667 mmHg 28%
    14:00 +36°C° 0 mm 3 mps 667 mmHg 28%
    15:00 +36°C° 0 mm 2 mps 666 mmHg 28%
    16:00 +35°C° 0 mm 2 mps 665 mmHg 28%
    17:00 +32°C° 0.3 mm 2 mps 665 mmHg 33%
    18:00 +30°C° 0.3 mm 2 mps 665 mmHg 38%
    19:00 +28°C° 0.3 mm 1 mps 665 mmHg 43%
    20:00 +28°C° 0.3 mm 1 mps 665 mmHg 45%
    21:00 +27°C° 0.3 mm 2 mps 666 mmHg 48%
    22:00 +27°C° 0.3 mm 2 mps 666 mmHg 50%
    23:00 +27°C° 0.1 mm 2 mps 666 mmHg 53%

    19 February, Tuesday

    Time Temperature Precipitation Wind Pressure Humidity
    00:00 +26°C° 0.1 mm 2 mps 666 mmHg 55%
    01:00 +26°C° 0.1 mm 2 mps 666 mmHg 58%
    02:00 +25°C° 0 mm 2 mps 666 mmHg 60%
    03:00 +24°C° 0 mm 1 mps 665 mmHg 62%
    04:00 +23°C° 0 mm 1 mps 665 mmHg 64%
    05:00 +24°C° 0 mm 1 mps 665 mmHg 62%
    06:00 +24°C° 0 mm 1 mps 666 mmHg 59%
    07:00 +24°C° 0 mm 2 mps 667 mmHg 57%
    08:00 +27°C° 0 mm 2 mps 667 mmHg 50%
    09:00 +30°C° 0 mm 3 mps 668 mmHg 43%
    10:00 +33°C° 0 mm 3 mps 669 mmHg 36%
    11:00 +34°C° 0 mm 3 mps 668 mmHg 33%
    12:00 +35°C° 0 mm 3 mps 668 mmHg 31%
    13:00 +36°C° 0 mm 2 mps 667 mmHg 28%
    14:00 +36°C° 0 mm 2 mps 667 mmHg 28%
    15:00 +36°C° 0 mm 2 mps 666 mmHg 28%
    16:00 +35°C° 0 mm 2 mps 665 mmHg 28%
    17:00 +34°C° 0 mm 2 mps 665 mmHg 31%
    18:00 +31°C° 0 mm 1 mps 665 mmHg 34%
    19:00 +30°C° 0 mm 1 mps 665 mmHg 36%
    20:00 +29°C° 0 mm 1 mps 665 mmHg 38%
    21:00 +28°C° 0 mm 1 mps 666 mmHg 39%
    22:00 +27°C° 0 mm 1 mps 666 mmHg 41%
    23:00 +26°C° 0 mm 1 mps 666 mmHg 46%

    20 February, Wednesday

    Time Temperature Precipitation Wind Pressure Humidity
    00:00 +25°C° 0 mm 2 mps 666 mmHg 51%
    01:00 +24°C° 0 mm 2 mps 665 mmHg 57%
    02:00 +24°C° 0 mm 2 mps 665 mmHg 55%
    03:00 +24°C° 0 mm 2 mps 665 mmHg 53%
    04:00 +24°C° 0 mm 2 mps 665 mmHg 51%
    05:00 +24°C° 0 mm 1 mps 666 mmHg 50%
    06:00 +24°C° 0 mm 1 mps 666 mmHg 48%
    07:00 +25°C° 0 mm 1 mps 667 mmHg 47%
    08:00 +26°C° 0 mm 1 mps 668 mmHg 44%
    09:00 +28°C° 0 mm 1 mps 668 mmHg 40%
    10:00 +30°C° 0 mm 1 mps 669 mmHg 37%
    11:00 +32°C° 0 mm 1 mps 668 mmHg 34%
    12:00 +34°C° 0 mm 1 mps 668 mmHg 30%
    13:00 +36°C° 0 mm 1 mps 668 mmHg 26%
    14:00 +36°C° 0 mm 1 mps 667 mmHg 27%
    15:00 +35°C° 0 mm 1 mps 667 mmHg 27%
    16:00 +35°C° 0 mm 1 mps 666 mmHg 27%
    17:00 +33°C° 0 mm 1 mps 666 mmHg 31%
    18:00 +31°C° 0 mm 1 mps 666 mmHg 34%
    19:00 +30°C° 0 mm 1 mps 666 mmHg 37%
    20:00 +29°C° 0 mm 2 mps 666 mmHg 38%
    21:00 +29°C° 0 mm 2 mps 667 mmHg 39%
    22:00 +29°C° 0 mm 2 mps 667 mmHg 41%
    23:00 +28°C° 0 mm 2 mps 667 mmHg 42%

    21 February, Thursday

    Time Temperature Precipitation Wind Pressure Humidity
    00:00 +27°C° 0 mm 1 mps 667 mmHg 44%
    01:00 +27°C° 0 mm 1 mps 667 mmHg 46%
    02:00 +27°C° 0 mm 1 mps 667 mmHg 45%
    03:00 +27°C° 0 mm 2 mps 667 mmHg 44%
    04:00 +27°C° 0 mm 2 mps 667 mmHg 43%
    05:00 +27°C° 0 mm 2 mps 667 mmHg 44%
    06:00 +26°C° 0 mm 2 mps 668 mmHg 44%
    07:00 +26°C° 0 mm 1 mps 668 mmHg 44%
    08:00 +28°C° 0 mm 1 mps 669 mmHg 40%
    09:00 +31°C° 0 mm 1 mps 669 mmHg 35%
    10:00 +34°C° 0 mm 2 mps 670 mmHg 30%
    11:00 +35°C° 0 mm 2 mps 669 mmHg 27%
    12:00 +37°C° 0 mm 3 mps 669 mmHg 24%
    13:00 +38°C° 0 mm 3 mps 668 mmHg 21%
    14:00 +38°C° 0 mm 3 mps 668 mmHg 21%
    15:00 +38°C° 0 mm 2 mps 667 mmHg 20%
    16:00 +37°C° 0 mm 1 mps 667 mmHg 19%
    17:00 +35°C° 0 mm 1 mps 666 mmHg 22%
    18:00 +32°C° 0 mm 1 mps 666 mmHg 26%
    19:00 +30°C° 0 mm 1 mps 666 mmHg 29%
    20:00 +29°C° 0 mm 1 mps 666 mmHg 31%
    21:00 +28°C° 0 mm 1 mps 667 mmHg 33%
    22:00 +28°C° 0 mm 1 mps 667 mmHg 36%
    23:00 +27°C° 0 mm 1 mps 667 mmHg 38%
    Show more